Meteo Giornale » Osservazioni meteo Norvegia » Notodden
ore: 18:50 - Osservazioni Meteo Notodden
Lat. 59° 34' N Lon. 9° 13' E Alt. 19 metri s.l.m.
24 °C
Sereno
Temp. 24 Ore
9 °C
25 °C
Est
11.1 Km/h
Dew point 11 °C
Umidità 43 %
Visibilità 10 Km
Il sole sorge alle ore 06:17
Il sole tramonta alle ore 20:29
| Data e Ora | Cielo e Fenomeni | T °C | DP °C | Um. % | Pres. hPa | Vis. km | Vento km/h | |
|---|---|---|---|---|---|---|---|---|
| Oggi h: 18:50 | Sereno | 24 | 11 | 43 | 1003 | 10 | E 11.1 | |
| Oggi h: 18:20 | Sereno | 25 | 9 | 36 | 1003 | 10 | E/SE 11.1 | |
| Oggi h: 17:20 | Sereno | 24 | 9 | 38 | 1003 | 10 | E/SE 9.3 | |
| Oggi h: 16:50 | Sereno | 24 | 9 | 38 | 1003 | 10 | E/SE 7.4 | |
| Oggi h: 16:20 | Sereno | 25 | 9 | 36 | 1003 | 10 | SE 9.3 | |
| Oggi h: 15:50 | Sereno | 24 | 9 | 38 | 1003 | 10 | N 0 | |
| Oggi h: 15:20 | Sereno | 24 | 9 | 38 | 1003 | 10 | SE 7.4 | |
| Oggi h: 14:50 | Sereno | 23 | 9 | 40 | 1003 | 10 | SE 7.4 | |
| Oggi h: 14:20 | Sereno | 24 | 10 | 41 | 1003 | 10 | N 5.5 | |
| Oggi h: 13:50 | Sereno | 23 | 8 | 38 | 1003 | 10 | E/SE 7.4 | |
| Oggi h: 12:50 | Sereno | 22 | 10 | 46 | 1003 | 10 | N 3.7 | |
| Oggi h: 12:20 | Sereno | 21 | 10 | 49 | 1003 | 10 | N 0 | |
| Oggi h: 11:50 | Sereno | 20 | 10 | 52 | 1004 | 10 | N 3.7 | |
| Oggi h: 11:20 | Sereno | 19 | 11 | 59 | 1004 | 10 | N 0 | |
| Oggi h: 10:50 | Sereno | 16 | 12 | 77 | 1004 | 10 | N 0 | |
| Oggi h: 10:20 | Sereno | 15 | 11 | 76 | 1004 | 10 | N 0 | |
| Oggi h: 09:50 | Poco Nuvoloso | 13 | 11 | 87 | 1004 | 10 | N 0 | |
| Oggi h: 09:20 | Poco Nuvoloso | 12 | 11 | 93 | 1004 | 10 | N 0 | |
| Oggi h: 08:50 | Nuvoloso | 12 | 11 | 93 | 1004 | 10 | N 0 | |
| Oggi h: 08:20 | Nuvoloso | 10 | 10 | 100 | 1004 | 5 | N 0 | |
| Oggi h: 07:50 | Nebbia | 9 | 9 | 100 | 1004 | 0.6 | N 3.7 | |
| Oggi h: 07:20 | Nebbia | 10 | 10 | 100 | 1004 | 0.5 | N 1.8 | |
| Oggi h: 06:50 | Nebbia | 10 | 10 | 100 | 1004 | 0.5 | N 1.8 | |



